Weather History for K2G4 - September, 2013

Change the Weather History Date:

Sunday, September 8, 2013

  Actual Average (KMGW) Record (KMGW)
Temperature  
Mean Temperature 66 °F 68 °F  
Max Temperature 73 °F 79 °F 92 °F (1959)
Min Temperature 59 °F 58 °F 40 °F (1951)
Degree Days  
Heating Degree Days 0 1  
Month to date heating degree days 8  
Since 1 July heating degree days 19  
Cooling Degree Days 1 4  
Month to date cooling degree days 39  
Year to date cooling degree days 748  
Growing Degree Days 16 (Base 50)    
Moisture  
Dew Point 60 °F    
Average Humidity 85    
Maximum Humidity 100    
Minimum Humidity 73    
Precipitation  
Precipitation 0.00 in 0.11 in 1.73 in (2004)
Month to date precipitation 0.85  
Year to date precipitation 30.32  
Sea Level Pressure  
Sea Level Pressure 30.06 in    
Wind  
Wind Speed 7 mph (West)    
Max Wind Speed 9 mph    
Max Gust Speed 17 mph    
Visibility 10 miles    
Events      
T = Trace of Precipitation, MM = Missing Value Source: NWS Daily Summary

Daily Weather History Graph

Daily Weather History Graph

Search for Another Location

Airport or City:

Trip Planner

Search our weather history database for the weather conditions in past years. The results will help you decide how hot, cold, wet, or windy it might be!

Date:

Astronomy

Sep. 08, 2013 Rise Set
Actual Time 6:52 AM EDT 7:36 PM EDT
Civil Twilight 6:24 AM EDT 8:04 PM EDT
Nautical Twilight 5:52 AM EDT 8:36 PM EDT
Astronomical Twilight 5:19 AM EDT 9:09 PM EDT
Moon 10:07 AM EDT (9/8) 9:12 PM EDT (9/8)
Length of Visible Light 13h 39m
Length of Day
12h 44m
Waxing Crescent, 11% of the Moon is Illuminated
Sep 8
Waxing Crescent
Sep 12
First Quarter
Sep 19
Full
Sep 26
Last Quarter
Oct 4
New

Hourly Weather History & Observations

Time (EDT) Temp. Dew Point Humidity Pressure Visibility Wind Dir Wind Speed Gust Speed Precip Events Conditions
12:15 AM 59.0 °F 53.6 °F 82% 30.06 in 10.0 mi WSW 8.1 mph - N/A   Scattered Clouds
12:35 AM 60.8 °F 53.6 °F 77% 30.06 in 10.0 mi WSW 8.1 mph - N/A   Mostly Cloudy
12:55 AM 59.0 °F 53.6 °F 82% 30.06 in 10.0 mi WSW 9.2 mph - N/A   Scattered Clouds
1:15 AM 59.0 °F 53.6 °F 82% 30.06 in 10.0 mi WSW 9.2 mph - N/A   Clear
1:35 AM 59.0 °F 53.6 °F 82% 30.05 in 10.0 mi WSW 8.1 mph - N/A   Clear
1:55 AM 60.8 °F 53.6 °F 77% 30.05 in 10.0 mi WSW 9.2 mph - N/A   Scattered Clouds
2:15 AM 60.8 °F 53.6 °F 77% 30.05 in 10.0 mi WSW 9.2 mph - N/A   Overcast
2:35 AM 60.8 °F 53.6 °F 77% 30.06 in 10.0 mi West 8.1 mph - N/A   Overcast
2:55 AM 60.8 °F 53.6 °F 77% 30.05 in 10.0 mi WSW 9.2 mph - N/A   Overcast
3:15 AM 60.8 °F 53.6 °F 77% 30.05 in 10.0 mi WSW 8.1 mph - N/A   Overcast
3:35 AM 60.8 °F 55.4 °F 82% 30.04 in 10.0 mi WSW 8.1 mph - N/A   Overcast
3:55 AM 60.8 °F 55.4 °F 82% 30.04 in 10.0 mi SW 6.9 mph 17.3 mph N/A   Overcast
4:15 AM 60.8 °F 55.4 °F 82% 30.04 in 10.0 mi WSW 6.9 mph - N/A   Overcast
4:35 AM 60.8 °F 55.4 °F 82% 30.04 in 10.0 mi SW 6.9 mph - N/A   Mostly Cloudy
4:55 AM 60.8 °F 55.4 °F 82% 30.04 in 10.0 mi WSW 6.9 mph - N/A   Mostly Cloudy
5:15 AM 60.8 °F 55.4 °F 82% 30.03 in 10.0 mi WSW 8.1 mph - N/A   Overcast
5:35 AM 60.8 °F 55.4 °F 82% 30.03 in 10.0 mi WSW 8.1 mph - N/A   Mostly Cloudy
5:55 AM 60.8 °F 55.4 °F 82% 30.03 in 10.0 mi WSW 8.1 mph - N/A   Overcast
6:15 AM 60.8 °F 55.4 °F 82% 30.04 in 10.0 mi WSW 8.1 mph - N/A   Mostly Cloudy
6:35 AM 60.8 °F 55.4 °F 82% 30.04 in 10.0 mi SW 6.9 mph - N/A   Mostly Cloudy
6:55 AM 60.8 °F 55.4 °F 82% 30.05 in 10.0 mi WSW 8.1 mph - N/A   Overcast
7:15 AM 60.8 °F 57.2 °F 88% 30.05 in 10.0 mi WSW 6.9 mph - N/A   Mostly Cloudy
7:35 AM 60.8 °F 57.2 °F 88% 30.05 in 10.0 mi WSW 6.9 mph - N/A   Scattered Clouds
7:55 AM 60.8 °F 57.2 °F 88% 30.05 in 10.0 mi WSW 6.9 mph - N/A   Clear
8:15 AM 62.6 °F 59.0 °F 88% 30.04 in 10.0 mi SW 5.8 mph - N/A   Clear
8:35 AM 62.6 °F 59.0 °F 88% 30.04 in 10.0 mi WSW 6.9 mph - N/A   Clear
8:55 AM 64.4 °F 59.0 °F 83% 30.04 in 10.0 mi West 6.9 mph - N/A   Clear
9:15 AM 64.4 °F 60.8 °F 88% 30.05 in 10.0 mi West 4.6 mph - N/A   Clear
9:35 AM 66.2 °F 60.8 °F 83% 30.05 in 10.0 mi WNW 6.9 mph - N/A   Clear
9:55 AM 68.0 °F 60.8 °F 78% 30.06 in 10.0 mi WNW 4.6 mph - N/A   Clear
10:15 AM 68.0 °F 60.8 °F 78% 30.05 in 10.0 mi West 5.8 mph - N/A   Clear
10:35 AM 68.0 °F 62.6 °F 83% 30.05 in 10.0 mi NW 5.8 mph - N/A   Clear
10:55 AM 69.8 °F 62.6 °F 78% 30.05 in 10.0 mi WNW 3.5 mph - N/A   Clear
11:20 AM 69.8 °F 62.6 °F 78% 30.05 in 10.0 mi West 6.9 mph - N/A   Clear
11:40 AM 71.6 °F 64.4 °F 78% 30.05 in 10.0 mi WNW 4.6 mph - N/A   Clear
12:00 PM 71.6 °F 64.4 °F 78% 30.05 in 10.0 mi West 5.8 mph - N/A   Clear
12:20 PM 71.6 °F 64.4 °F 78% 30.05 in 10.0 mi NW 4.6 mph - N/A   Clear
12:40 PM 71.6 °F 64.4 °F 78% 30.05 in 10.0 mi West 8.1 mph - N/A   Clear
1:00 PM 71.6 °F 64.4 °F 78% 30.06 in 10.0 mi NNW 4.6 mph - N/A   Mostly Cloudy
1:20 PM 73.4 °F 64.4 °F 73% 30.05 in 10.0 mi WNW 8.1 mph - N/A   Mostly Cloudy
1:40 PM 69.8 °F 64.4 °F 83% 30.06 in 10.0 mi NNW 4.6 mph - N/A   Mostly Cloudy
2:00 PM 71.6 °F 64.4 °F 78% 30.06 in 10.0 mi NNW 6.9 mph - N/A   Mostly Cloudy
2:20 PM 71.6 °F 64.4 °F 78% 30.06 in 10.0 mi NW 6.9 mph - N/A   Mostly Cloudy
2:40 PM 71.6 °F 62.6 °F 73% 30.06 in 10.0 mi NW 8.1 mph - N/A   Mostly Cloudy
3:00 PM 69.8 °F 64.4 °F 83% 30.06 in 10.0 mi NW 5.8 mph - N/A   Overcast
3:20 PM 69.8 °F 64.4 °F 83% 30.06 in 10.0 mi WNW 5.8 mph - N/A   Mostly Cloudy
3:40 PM 71.6 °F 64.4 °F 78% 30.06 in 10.0 mi NNW 6.9 mph - N/A   Mostly Cloudy
4:00 PM 69.8 °F 64.4 °F 83% 30.06 in 10.0 mi NNW 6.9 mph - N/A   Mostly Cloudy
4:20 PM 68.0 °F 64.4 °F 88% 30.07 in 10.0 mi NNW 5.8 mph - N/A   Mostly Cloudy
4:40 PM 68.0 °F 62.6 °F 83% 30.07 in 10.0 mi NNW 4.6 mph - N/A   Scattered Clouds
5:00 PM 69.8 °F 64.4 °F 83% 30.06 in 10.0 mi NNW 6.9 mph - N/A   Clear
5:20 PM 69.8 °F 64.4 °F 83% 30.07 in 10.0 mi North 4.6 mph - N/A   Clear
5:40 PM 69.8 °F 64.4 °F 83% 30.07 in 10.0 mi NW 4.6 mph - N/A   Scattered Clouds
6:00 PM 69.8 °F 64.4 °F 83% 30.07 in 10.0 mi NNW 3.5 mph - N/A   Scattered Clouds
6:20 PM 68.0 °F 64.4 °F 88% 30.07 in 10.0 mi NNW 4.6 mph - N/A   Scattered Clouds
6:40 PM 68.0 °F 64.4 °F 88% 30.08 in 10.0 mi Calm Calm - N/A   Clear
7:00 PM 66.2 °F 64.4 °F 94% 30.08 in 10.0 mi Calm Calm - N/A   Clear
7:20 PM 64.4 °F 64.4 °F 100% 30.08 in 10.0 mi Calm Calm - N/A   Clear
7:40 PM 64.4 °F 64.4 °F 100% 30.09 in 7.0 mi Calm Calm - N/A   Clear
8:00 PM 64.4 °F 64.4 °F 100% 30.09 in 10.0 mi NNE 3.5 mph - N/A   Scattered Clouds
8:20 PM 62.6 °F 62.6 °F 100% 30.10 in 10.0 mi North 3.5 mph - N/A   Scattered Clouds
8:40 PM 62.6 °F 62.6 °F 100% 30.11 in 10.0 mi Calm Calm - N/A   Clear
9:00 PM 62.6 °F 62.6 °F 100% 30.11 in 7.0 mi Calm Calm - N/A   Clear
9:20 PM 62.6 °F 62.6 °F 100% 30.12 in 10.0 mi Calm Calm - N/A   Clear
9:40 PM 62.6 °F 62.6 °F 100% 30.12 in 10.0 mi East 3.5 mph - N/A   Clear
10:00 PM 62.6 °F 62.6 °F 100% 30.12 in 10.0 mi ESE 4.6 mph - N/A   Clear
10:20 PM 60.8 °F 60.8 °F 100% 30.13 in 10.0 mi Calm Calm - N/A   Clear
10:40 PM 62.6 °F 62.6 °F 100% 30.13 in 10.0 mi Calm Calm - N/A   Clear
11:20 PM 60.8 °F 60.8 °F 100% 30.13 in 7.0 mi ESE 3.5 mph - N/A   Clear
11:40 PM 60.8 °F 60.8 °F 100% 30.14 in 10.0 mi ESE 5.8 mph - N/A   Clear